Orbital Elements at Epoch 2459200.5 (2020-Dec-17.0) TDB
Reference: JPL 13 (heliocentric ecliptic J2000)
Element | Value | Uncertainty (1-sigma) | Units |
e | .06360962199112184 | 6.4817e-08 | |
a | 2.96888821232398 | 3.1786e-08 | au |
q | 2.780038355404154 | 1.9421e-07 | au |
i | 9.774127544251284 | 5.897e-06 | deg |
node | 72.49742866198197 | 4.255e-05 | deg |
peri | 335.7854807957785 | 7.0858e-05 | deg |
M | 257.0135271363042 | 5.6777e-05 | deg |
tp | 2459735.023592538664 (2022-Jun-04.52359254) | 0.00029731 | TDB |
period | 1868.483189715617 5.12 | 3.0007e-05 8.215e-08 | d yr |
n | .1926696488261112 | 3.0942e-09 | deg/d |
Q | 3.157738069243806 | 3.3808e-08 | au |
|
| | Orbit Determination Parameters
Additional Information
|